| time (UTC) | temp F | wind direction | speed MPH | gust MPH | rain 1hr in | rain 24hr in | rain mn in | humidity % | barometer mb |
| 20260505210540 | 78 | 192 | 7.0 | 8.0 | 0.00 | 0.02 | 0.02 | 44 | 1007.9 |
| 20260505210037 | 78 | 222 | 5.0 | 20.0 | 0.00 | 0.02 | 0.02 | 46 | 1007.6 |
| 20260505205535 | 78 | 205 | 10.0 | 23.0 | 0.00 | 0.02 | 0.02 | 43 | 1007.6 |
| 20260505205032 | 78 | 212 | 9.0 | 18.0 | 0.00 | 0.02 | 0.02 | 43 | 1007.5 |
| 20260505204530 | 78 | 210 | 9.0 | 13.0 | 0.00 | 0.02 | 0.02 | 45 | 1007.7 |
| 20260505204027 | 78 | 307 | 5.0 | 18.0 | 0.00 | 0.02 | 0.02 | 44 | 1007.6 |
| 20260505203523 | 79 | 164 | 9.0 | 16.0 | 0.00 | 0.02 | 0.02 | 43 | 1007.6 |
| 20260505203020 | 78 | 236 | 10.0 | 17.0 | 0.00 | 0.02 | 0.02 | 43 | 1007.8 |
| 20260505202516 | 78 | 186 | 8.0 | 14.0 | 0.00 | 0.02 | 0.02 | 46 | 1007.6 |
| 20260505202012 | 78 | 184 | 6.0 | 14.0 | 0.00 | 0.02 | 0.02 | 43 | 1007.7 |
| 20260505201510 | 79 | 188 | 9.0 | 13.0 | 0.00 | 0.02 | 0.02 | 43 | 1007.7 |
| 20260505201007 | 78 | 187 | 6.0 | 15.0 | 0.00 | 0.02 | 0.02 | 44 | 1007.8 |
| 20260505200505 | 78 | 162 | 5.0 | 18.0 | 0.00 | 0.02 | 0.02 | 45 | 1007.7 |
| 20260505200001 | 79 | 226 | 16.0 | 18.0 | 0.00 | 0.02 | 0.02 | 42 | 1007.8 |
| 20260505195458 | 78 | 252 | 11.0 | 21.0 | 0.00 | 0.02 | 0.02 | 43 | 1007.8 |
| 20260505194955 | 78 | 205 | 14.0 | 20.0 | 0.00 | 0.02 | 0.02 | 43 | 1008.1 |
| 20260505194452 | 78 | 169 | 10.0 | 32.0 | 0.00 | 0.02 | 0.02 | 43 | 1008.0 |
| 20260505193952 | 79 | 228 | 13.0 | 22.0 | 0.00 | 0.02 | 0.02 | 42 | 1007.9 |
| 20260505193450 | 79 | 152 | 7.0 | 16.0 | 0.00 | 0.02 | 0.02 | 42 | 1007.8 |
| 20260505192947 | 80 | 225 | 10.0 | 16.0 | 0.00 | 0.02 | 0.02 | 42 | 1008.0 |
| 20260505192446 | 80 | 215 | 12.0 | 23.0 | 0.00 | 0.02 | 0.02 | 42 | 1007.8 |
| 20260505191943 | 80 | 235 | 11.0 | 15.0 | 0.00 | 0.02 | 0.02 | 41 | 1007.7 |
| 20260505191442 | 79 | 219 | 11.0 | 15.0 | 0.00 | 0.02 | 0.02 | 43 | 1008.0 |
| 20260505190938 | 78 | 207 | 10.0 | 18.0 | 0.00 | 0.02 | 0.02 | 45 | 1007.8 |
| 20260505190433 | 80 | 147 | 11.0 | 16.0 | 0.00 | 0.02 | 0.02 | 44 | 1008.1 |
| 20260505185929 | 79 | 184 | 7.0 | 14.0 | 0.00 | 0.02 | 0.02 | 46 | 1008.4 |
| 20260505185427 | 79 | 183 | 3.0 | 10.0 | 0.00 | 0.02 | 0.02 | 44 | 1008.5 |
| 20260505184923 | 78 | 143 | 9.0 | 21.0 | 0.00 | 0.02 | 0.02 | 45 | 1008.6 |
| 20260505184420 | 78 | 206 | 9.0 | 24.0 | 0.00 | 0.02 | 0.02 | 44 | 1008.6 |
| 20260505183916 | 80 | 205 | 14.0 | 18.0 | 0.00 | 0.02 | 0.02 | 40 | 1008.6 |
| 20260505183413 | 78 | 150 | 7.0 | 14.0 | 0.00 | 0.02 | 0.02 | 44 | 1008.9 |
| 20260505182910 | 79 | 231 | 15.0 | 20.0 | 0.00 | 0.02 | 0.02 | 42 | 1008.9 |
| 20260505182407 | 77 | 157 | 9.0 | 20.0 | 0.00 | 0.02 | 0.02 | 43 | 1009.1 |
| 20260505181903 | 78 | 248 | 9.0 | 16.0 | 0.00 | 0.02 | 0.02 | 42 | 1009.0 |
| 20260505181401 | 78 | 225 | 15.0 | 20.0 | 0.00 | 0.02 | 0.02 | 41 | 1008.7 |
| 20260505180857 | 79 | 199 | 15.0 | 22.0 | 0.00 | 0.02 | 0.02 | 42 | 1009.0 |
| 20260505180354 | 79 | 243 | 10.0 | 17.0 | 0.00 | 0.02 | 0.02 | 42 | 1009.0 |
| 20260505175850 | 79 | 182 | 7.0 | 11.0 | 0.00 | 0.02 | 0.02 | 42 | 1009.1 |
| 20260505175347 | 78 | 239 | 7.0 | 21.0 | 0.00 | 0.02 | 0.02 | 43 | 1009.2 |
| 20260505174843 | 79 | 184 | 15.0 | 23.0 | 0.00 | 0.02 | 0.02 | 42 | 1009.3 |
| 20260505174341 | 78 | 230 | 15.0 | 22.0 | 0.00 | 0.02 | 0.02 | 41 | 1009.1 |
| 20260505173836 | 77 | 245 | 14.0 | 23.0 | 0.00 | 0.02 | 0.02 | 43 | 1009.3 |
| 20260505173333 | 78 | 279 | 10.0 | 15.0 | 0.00 | 0.02 | 0.02 | 45 | 1009.3 |
| 20260505172830 | 78 | 239 | 12.0 | 14.0 | 0.00 | 0.02 | 0.02 | 45 | 1009.1 |
| 20260505172328 | 78 | 229 | 8.0 | 15.0 | 0.00 | 0.02 | 0.02 | 48 | 1009.4 |
| 20260505171827 | 78 | 241 | 7.0 | 14.0 | 0.00 | 0.02 | 0.02 | 48 | 1009.2 |
| 20260505171325 | 78 | 234 | 7.0 | 10.0 | 0.00 | 0.02 | 0.02 | 47 | 1009.3 |
| 20260505170821 | 77 | 239 | 13.0 | 16.0 | 0.00 | 0.02 | 0.02 | 46 | 1009.4 |
| 20260505170318 | 78 | 246 | 7.0 | 14.0 | 0.00 | 0.02 | 0.02 | 47 | 1009.7 |
| 20260505165813 | 78 | 181 | 5.0 | 11.0 | 0.00 | 0.02 | 0.02 | 50 | 1009.7 |
| 20260505165309 | 77 | 251 | 9.0 | 14.0 | 0.00 | 0.02 | 0.02 | 49 | 1009.7 |
| 20260505164805 | 77 | 189 | 6.0 | 17.0 | 0.00 | 0.02 | 0.02 | 49 | 1009.8 |
| 20260505164303 | 77 | 238 | 7.0 | 11.0 | 0.00 | 0.02 | 0.02 | 48 | 1009.9 |
| 20260505163801 | 77 | 242 | 5.0 | 13.0 | 0.00 | 0.02 | 0.02 | 49 | 1010.2 |
| 20260505163259 | 77 | 205 | 10.0 | 13.0 | 0.00 | 0.02 | 0.02 | 48 | 1010.3 |
| 20260505162756 | 78 | 238 | 8.0 | 13.0 | 0.00 | 0.02 | 0.02 | 47 | 1010.0 |
| 20260505162253 | 78 | 203 | 6.0 | 10.0 | 0.00 | 0.02 | 0.02 | 49 | 1009.9 |
| 20260505161750 | 77 | 312 | 7.0 | 14.0 | 0.00 | 0.02 | 0.02 | 47 | 1010.0 |
| 20260505161247 | 77 | 230 | 6.0 | 14.0 | 0.00 | 0.02 | 0.02 | 48 | 1010.3 |
| 20260505160744 | 77 | 213 | 7.0 | 8.0 | 0.00 | 0.02 | 0.02 | 49 | 1010.4 |
| 20260505160242 | 78 | 246 | 4.0 | 7.0 | 0.00 | 0.02 | 0.02 | 52 | 1010.1 |
| 20260505153221 | 75 | 212 | 9.0 | 21.0 | 0.00 | 0.02 | 0.02 | 52 | 1010.3 |
| 20260505152718 | 75 | 265 | 7.0 | 15.0 | 0.00 | 0.02 | 0.02 | 51 | 1010.3 |
| 20260505152214 | 75 | 208 | 10.0 | 14.0 | 0.00 | 0.02 | 0.02 | 50 | 1010.6 |
| 20260505151709 | 75 | 230 | 7.0 | 9.0 | 0.00 | 0.02 | 0.02 | 54 | 1010.5 |
| 20260505151207 | 75 | 196 | 6.0 | 9.0 | 0.00 | 0.02 | 0.02 | 55 | 1010.4 |
| 20260505150703 | 75 | 264 | 5.0 | 9.0 | 0.00 | 0.02 | 0.02 | 52 | 1010.6 |
| 20260505150201 | 75 | 187 | 6.0 | 13.0 | 0.00 | 0.02 | 0.02 | 53 | 1010.6 |
| 20260505140633 | 71 | 160 | 8.0 | 13.0 | 0.00 | 0.02 | 0.02 | 59 | 1011.0 |
| 20260505140131 | 70 | 192 | 6.0 | 15.0 | 0.00 | 0.02 | 0.02 | 60 | 1011.0 |
| 20260505124544 | 68 | 337 | 3.0 | 5.0 | 0.00 | 0.02 | 0.02 | 65 | 1011.4 |
| 20260505124040 | 68 | 96 | 2.0 | 2.0 | 0.00 | 0.02 | 0.02 | 66 | 1011.4 |
| 20260505123536 | 69 | 127 | 0.0 | 5.0 | 0.00 | 0.02 | 0.02 | 64 | 1011.2 |
| 20260505123033 | 67 | 148 | 0.0 | 1.0 | 0.00 | 0.02 | 0.02 | 69 | 1011.5 |
| 20260505122530 | 65 | 125 | 0.0 | 0.0 | 0.00 | 0.02 | 0.02 | 74 | 1011.5 |
| 20260505122027 | 63 | 150 | 0.0 | 2.0 | 0.00 | 0.02 | 0.02 | 78 | 1011.5 |
| 20260505121523 | 64 | 159 | 1.0 | 1.0 | 0.00 | 0.02 | 0.02 | 72 | 1011.3 |
| 20260505121020 | 64 | 202 | 3.0 | 3.0 | 0.00 | 0.02 | 0.02 | 71 | 1011.3 |
| 20260505120516 | 65 | 141 | 0.0 | 2.0 | 0.00 | 0.02 | 0.02 | 76 | 1011.3 |
| 20260505120012 | 65 | 80 | 1.0 | 2.0 | 0.00 | 0.02 | 0.02 | 75 | 1011.3 |
| 20260505115507 | 63 | 157 | 2.0 | 2.0 | 0.00 | 0.02 | 0.02 | 74 | 1011.3 |
| 20260505115005 | 63 | 145 | 1.0 | 2.0 | 0.00 | 0.02 | 0.02 | 85 | 1011.2 |
| 20260505114501 | 63 | 123 | 0.0 | 3.0 | 0.00 | 0.02 | 0.02 | 81 | 1010.8 |
| 20260505113958 | 62 | 112 | 0.0 | 1.0 | 0.00 | 0.02 | 0.02 | 84 | 1010.9 |
| 20260505113454 | 60 | 100 | 1.0 | 1.0 | 0.00 | 0.02 | 0.02 | 83 | 1011.1 |
| 20260505112950 | 59 | 129 | 0.0 | 0.0 | 0.00 | 0.02 | 0.02 | 86 | 1011.1 |
| 20260505112447 | 58 | 147 | 0.0 | 0.0 | 0.00 | 0.02 | 0.02 | 88 | 1011.0 |
| 20260505111944 | 57 | 147 | 0.0 | 3.0 | 0.00 | 0.02 | 0.02 | 90 | 1011.1 |
| 20260505111438 | 57 | 130 | 0.0 | 0.0 | 0.00 | 0.02 | 0.02 | 91 | 1011.1 |
| 20260505110935 | 56 | 106 | 1.0 | 1.0 | 0.00 | 0.02 | 0.02 | 91 | 1010.9 |
| 20260505110432 | 55 | 89 | 2.0 | 2.0 | 0.00 | 0.02 | 0.02 | 91 | 1011.1 |
| 20260505101903 | 54 | 128 | 3.0 | 3.0 | 0.00 | 0.02 | 0.02 | 89 | 1010.6 |
| 20260505101357 | 53 | 106 | 2.0 | 6.0 | 0.00 | 0.02 | 0.02 | 92 | 1010.7 |
| 20260505100854 | 53 | 123 | 2.0 | 3.0 | 0.00 | 0.02 | 0.02 | 92 | 1010.5 |
| 20260505100350 | 52 | 140 | 1.0 | 3.0 | 0.00 | 0.02 | 0.02 | 97 | 1010.4 |
| 20260505095846 | 53 | 143 | 4.0 | 5.0 | 0.00 | 0.02 | 0.02 | 93 | 1010.5 |
| 20260505095344 | 54 | 120 | 0.0 | 0.0 | 0.00 | 0.02 | 0.02 | 89 | 1010.6 |
| 20260505094839 | 55 | 131 | 2.0 | 2.0 | 0.00 | 0.02 | 0.02 | 89 | 1010.4 |
| 20260505094337 | 56 | 138 | 0.0 | 0.0 | 0.00 | 0.02 | 0.02 | 83 | 1010.4 |
| 20260505093832 | 57 | 172 | 2.0 | 2.0 | 0.00 | 0.02 | 0.02 | 83 | 1010.6 |
| 20260505093330 | 57 | 158 | 0.0 | 0.0 | 0.00 | 0.02 | 0.02 | 83 | 1010.4 |
| 20260505092827 | 57 | 119 | 0.0 | 1.0 | 0.00 | 0.02 | 0.02 | 83 | 1010.5 |
| 20260505092325 | 58 | 154 | 0.0 | 2.0 | 0.00 | 0.02 | 0.02 | 82 | 1010.2 |
| 20260505091822 | 57 | 144 | 0.0 | 2.0 | 0.00 | 0.02 | 0.02 | 82 | 1010.2 |
| 20260505091320 | 59 | 122 | 4.0 | 5.0 | 0.00 | 0.02 | 0.02 | 81 | 1010.4 |
| 20260505090818 | 59 | 163 | 1.0 | 7.0 | 0.00 | 0.02 | 0.02 | 79 | 1010.2 |
| 20260505090316 | 59 | 162 | 1.0 | 5.0 | 0.00 | 0.02 | 0.02 | 80 | 1010.2 |
| 20260505085812 | 58 | 324 | 3.0 | 3.0 | 0.00 | 0.02 | 0.02 | 83 | 1010.3 |
| 20260505085310 | 58 | 92 | 3.0 | 3.0 | 0.00 | 0.02 | 0.02 | 82 | 1010.2 |
| 20260505084808 | 58 | 96 | 0.0 | 3.0 | 0.00 | 0.02 | 0.02 | 83 | 1010.3 |
| 20260505084306 | 59 | 117 | 0.0 | 2.0 | 0.00 | 0.02 | 0.02 | 82 | 1010.3 |
| 20260505083803 | 56 | 216 | 5.0 | 7.0 | 0.00 | 0.02 | 0.02 | 85 | 1010.2 |
| 20260505083300 | 56 | 113 | 0.0 | 0.0 | 0.00 | 0.02 | 0.02 | 90 | 1010.3 |
| 20260505082756 | 55 | 75 | 0.0 | 2.0 | 0.00 | 0.02 | 0.02 | 92 | 1010.4 |
| 20260505082253 | 56 | 134 | 0.0 | 3.0 | 0.00 | 0.02 | 0.02 | 91 | 1010.2 |
| 20260505081749 | 56 | 114 | 3.0 | 3.0 | 0.00 | 0.02 | 0.02 | 94 | 1010.1 |
| 20260505081247 | 56 | 144 | 0.0 | 1.0 | 0.00 | 0.02 | 0.02 | 94 | 1010.2 |
| 20260505080743 | 56 | 147 | 0.0 | 0.0 | 0.00 | 0.02 | 0.02 | 95 | 1010.4 |
| 20260505080239 | 56 | 306 | 3.0 | 3.0 | 0.00 | 0.02 | 0.02 | 94 | 1010.1 |
| 20260505075735 | 56 | 103 | 1.0 | 3.0 | 0.00 | 0.02 | 0.02 | 94 | 1010.3 |
| 20260505075232 | 55 | 97 | 2.0 | 3.0 | 0.00 | 0.02 | 0.02 | 98 | 1010.2 |
| 20260505074729 | 56 | 75 | 0.0 | 1.0 | 0.00 | 0.02 | 0.02 | 98 | 1010.2 |
| 20260505074227 | 56 | 127 | 0.0 | 0.0 | 0.00 | 0.02 | 0.02 | 98 | 1010.3 |
| 20260505073724 | 56 | 137 | 0.0 | 2.0 | 0.00 | 0.02 | 0.02 | 98 | 1010.3 |
| 20260505073222 | 57 | 148 | 0.0 | 1.0 | 0.00 | 0.02 | 0.02 | 98 | 1010.1 |
| 20260505072718 | 58 | 140 | 0.0 | 2.0 | 0.00 | 0.02 | 0.02 | 95 | 1010.2 |
| 20260505072214 | 59 | 141 | 0.0 | 2.0 | 0.00 | 0.02 | 0.02 | 90 | 1010.4 |
| 20260505071709 | 59 | 153 | 1.0 | 8.0 | 0.00 | 0.02 | 0.02 | 83 | 1010.4 |
| 20260505071207 | 58 | 333 | 8.0 | 13.0 | 0.00 | 0.02 | 0.02 | 89 | 1010.5 |
| 20260505070705 | 58 | 129 | 1.0 | 2.0 | 0.00 | 0.02 | 0.02 | 88 | 1009.8 |
| 20260505070201 | 58 | 149 | 0.0 | 5.0 | 0.00 | 0.02 | 0.02 | 90 | 1009.6 |
| 20260505065656 | 60 | 161 | 4.0 | 6.0 | 0.14 | 0.02 | 0.02 | 83 | 1009.4 |
| 20260505065154 | 60 | 231 | 7.0 | 13.0 | 0.07 | 0.01 | 0.01 | 79 | 1010.3 |
| 20260505064651 | 59 | 98 | 0.0 | 0.0 | 0.00 | 0.00 | 0.00 | 79 | 1010.4 |
| 20260505064149 | 58 | 97 | 0.0 | 0.0 | 0.00 | 0.00 | 0.00 | 78 | 1010.0 |
| 20260505063646 | 59 | 121 | 0.0 | 1.0 | 0.00 | 0.00 | 0.00 | 77 | 1010.0 |
| 20260505063142 | 59 | 144 | 2.0 | 2.0 | 0.00 | 0.00 | 0.00 | 77 | 1009.9 |
| 20260505062638 | 60 | 143 | 2.0 | 5.0 | 0.00 | 0.00 | 0.00 | 76 | 1010.1 |
| 20260505062136 | 58 | 115 | 0.0 | 1.0 | 0.00 | 0.00 | 0.00 | 77 | 1010.1 |
| 20260505061633 | 59 | 108 | 1.0 | 1.0 | 0.00 | 0.00 | 0.00 | 76 | 1009.9 |
| 20260505061131 | 59 | 120 | 0.0 | 1.0 | 0.00 | 0.00 | 0.00 | 75 | 1010.0 |
| 20260505060628 | 59 | 97 | 3.0 | 3.0 | 0.00 | 0.00 | 0.00 | 73 | 1010.0 |
| 20260505060125 | 59 | 78 | 1.0 | 2.0 | 0.00 | 0.00 | 0.00 | 75 | 1010.0 |
| 20260505055620 | 59 | 77 | 2.0 | 2.0 | 0.00 | 0.00 | 0.00 | 74 | 1010.2 |
| 20260505055117 | 60 | 59 | 2.0 | 2.0 | 0.00 | 0.00 | 0.00 | 73 | 1010.1 |
| 20260505054614 | 60 | 114 | 0.0 | 2.0 | 0.00 | 0.00 | 0.00 | 72 | 1009.9 |
| 20260505054112 | 62 | 130 | 0.0 | 3.0 | 0.00 | 0.00 | 0.00 | 66 | 1010.3 |
| 20260505053609 | 60 | 82 | 3.0 | 5.0 | 0.00 | 0.00 | 0.00 | 67 | 1010.2 |
| 20260505053105 | 62 | 113 | 0.0 | 1.0 | 0.00 | 0.00 | 0.00 | 67 | 1010.4 |
| 20260505052603 | 62 | 78 | 0.0 | 2.0 | 0.00 | 0.00 | 0.00 | 66 | 1010.4 |
| 20260505052100 | 61 | 51 | 3.0 | 5.0 | 0.00 | 0.00 | 0.00 | 64 | 1010.3 |
| 20260505051557 | 60 | 146 | 0.0 | 3.0 | 0.00 | 0.00 | 0.00 | 72 | 1010.4 |
| 20260505051055 | 59 | 111 | 0.0 | 0.0 | 0.00 | 0.00 | 0.00 | 72 | 1010.2 |
| 20260505050553 | 59 | 115 | 0.0 | 1.0 | 0.00 | 0.00 | 0.00 | 71 | 1010.2 |
| 20260505041520 | 64 | 209 | 4.0 | 8.0 | 0.00 | 0.00 | 0.00 | 58 | 1009.9 |
| 20260505041018 | 64 | 210 | 4.0 | 10.0 | 0.00 | 0.00 | 0.00 | 58 | 1009.9 |
| 20260505040515 | 64 | 217 | 7.0 | 9.0 | 0.00 | 0.00 | 0.00 | 58 | 1009.8 |
| 20260505040012 | 64 | 158 | 3.0 | 9.0 | 0.00 | 0.00 | 0.00 | 58 | 1009.6 |
| 20260505035508 | 64 | 164 | 13.0 | 18.0 | 0.00 | 0.00 | 0.00 | 57 | 1009.5 |
| 20260505035005 | 64 | 182 | 4.0 | 9.0 | 0.00 | 0.00 | 0.00 | 58 | 1010.0 |
| 20260505034501 | 64 | 203 | 3.0 | 13.0 | 0.00 | 0.00 | 0.00 | 58 | 1009.8 |
| 20260505033959 | 64 | 227 | 8.0 | 11.0 | 0.00 | 0.00 | 0.00 | 58 | 1009.7 |
| 20260505033455 | 64 | 195 | 5.0 | 14.0 | 0.00 | 0.00 | 0.00 | 56 | 1009.6 |
| 20260505032954 | 64 | 190 | 9.0 | 14.0 | 0.00 | 0.00 | 0.00 | 56 | 1009.6 |
| 20260505032451 | 64 | 184 | 12.0 | 18.0 | 0.00 | 0.00 | 0.00 | 56 | 1009.7 |
| 20260505031947 | 64 | 157 | 12.0 | 21.0 | 0.00 | 0.00 | 0.00 | 56 | 1009.5 |
| 20260505031444 | 64 | 193 | 11.0 | 20.0 | 0.00 | 0.00 | 0.00 | 56 | 1009.7 |
| 20260505030941 | 64 | 146 | 6.0 | 18.0 | 0.00 | 0.00 | 0.00 | 56 | 1009.8 |
| 20260505030437 | 64 | 196 | 8.0 | 17.0 | 0.00 | 0.00 | 0.00 | 55 | 1009.6 |
| 20260505025932 | 64 | 189 | 9.0 | 16.0 | 0.00 | 0.00 | 0.00 | 55 | 1009.5 |
| 20260505025430 | 64 | 160 | 11.0 | 14.0 | 0.00 | 0.00 | 0.00 | 55 | 1009.6 |
| 20260505024928 | 64 | 187 | 13.0 | 16.0 | 0.00 | 0.00 | 0.00 | 55 | 1009.7 |
| 20260505024425 | 64 | 149 | 6.0 | 11.0 | 0.00 | 0.00 | 0.00 | 56 | 1009.7 |
| 20260505023922 | 64 | 201 | 10.0 | 14.0 | 0.00 | 0.00 | 0.00 | 55 | 1009.7 |
| 20260505023419 | 65 | 173 | 8.0 | 15.0 | 0.00 | 0.00 | 0.00 | 55 | 1009.5 |
| 20260505022917 | 65 | 220 | 7.0 | 13.0 | 0.00 | 0.00 | 0.00 | 53 | 1009.7 |
| 20260505022414 | 65 | 208 | 13.0 | 17.0 | 0.00 | 0.00 | 0.00 | 53 | 1009.7 |
| 20260505021911 | 65 | 159 | 5.0 | 8.0 | 0.00 | 0.00 | 0.00 | 55 | 1009.8 |
| 20260505021407 | 65 | 147 | 12.0 | 14.0 | 0.00 | 0.00 | 0.00 | 54 | 1009.8 |
| 20260505020903 | 65 | 137 | 15.0 | 21.0 | 0.00 | 0.00 | 0.00 | 54 | 1010.0 |
| 20260505020359 | 64 | 140 | 12.0 | 16.0 | 0.00 | 0.00 | 0.00 | 54 | 1009.8 |
| 20260505015856 | 65 | 144 | 5.0 | 11.0 | 0.00 | 0.00 | 0.00 | 55 | 1009.8 |
| 20260505015353 | 65 | 156 | 4.0 | 11.0 | 0.00 | 0.00 | 0.00 | 54 | 1009.9 |
| 20260505014850 | 65 | 204 | 6.0 | 9.0 | 0.00 | 0.00 | 0.00 | 54 | 1009.8 |
| 20260505014347 | 65 | 156 | 2.0 | 9.0 | 0.00 | 0.00 | 0.00 | 54 | 1010.0 |
| 20260505013844 | 65 | 211 | 5.0 | 17.0 | 0.00 | 0.00 | 0.00 | 54 | 1009.7 |
| 20260505013341 | 66 | 213 | 11.0 | 16.0 | 0.00 | 0.00 | 0.00 | 52 | 1009.8 |
| 20260505012839 | 66 | 233 | 13.0 | 16.0 | 0.00 | 0.00 | 0.00 | 52 | 1009.9 |
| 20260505012337 | 66 | 168 | 4.0 | 10.0 | 0.00 | 0.00 | 0.00 | 53 | 1009.7 |
| 20260505011833 | 66 | 165 | 9.0 | 14.0 | 0.00 | 0.00 | 0.00 | 52 | 1010.0 |
| 20260505011330 | 66 | 163 | 7.0 | 11.0 | 0.00 | 0.00 | 0.00 | 53 | 1009.7 |
| 20260505010826 | 66 | 188 | 8.0 | 13.0 | 0.00 | 0.00 | 0.00 | 52 | 1009.5 |
| 20260505010322 | 66 | 102 | 11.0 | 16.0 | 0.00 | 0.00 | 0.00 | 53 | 1009.6 |
| 20260505005818 | 66 | 160 | 5.0 | 8.0 | 0.00 | 0.00 | 0.00 | 52 | 1009.5 |
| 20260505005315 | 66 | 144 | 0.0 | 3.0 | 0.00 | 0.00 | 0.00 | 53 | 1009.2 |
| 20260505004813 | 68 | 231 | 4.0 | 7.0 | 0.00 | 0.00 | 0.00 | 49 | 1009.5 |
| 20260505004308 | 68 | 207 | 5.0 | 9.0 | 0.00 | 0.00 | 0.00 | 49 | 1009.1 |
| 20260505003806 | 69 | 235 | 9.0 | 11.0 | 0.00 | 0.00 | 0.00 | 48 | 1008.9 |
| 20260505003303 | 69 | 188 | 4.0 | 11.0 | 0.00 | 0.00 | 0.00 | 48 | 1009.2 |
| 20260505002759 | 68 | 223 | 8.0 | 9.0 | 0.00 | 0.00 | 0.00 | 49 | 1009.3 |
| 20260505002257 | 68 | 209 | 3.0 | 6.0 | 0.00 | 0.00 | 0.00 | 49 | 1009.2 |
| 20260505001755 | 69 | 217 | 5.0 | 8.0 | 0.00 | 0.00 | 0.00 | 48 | 1009.4 |
| 20260505001252 | 69 | 217 | 4.0 | 11.0 | 0.00 | 0.00 | 0.00 | 48 | 1009.2 |
| 20260505000749 | 69 | 197 | 5.0 | 14.0 | 0.00 | 0.00 | 0.00 | 48 | 1009.1 |
| 20260505000247 | 69 | 203 | 7.0 | 15.0 | 0.00 | 0.00 | 0.00 | 47 | 1009.0 |
| 20260504235743 | 69 | 203 | 6.0 | 8.0 | 0.00 | 0.00 | 0.00 | 48 | 1009.1 |
| 20260504235239 | 69 | 168 | 2.0 | 6.0 | 0.00 | 0.00 | 0.00 | 48 | 1009.1 |
| 20260504234736 | 69 | 178 | 4.0 | 6.0 | 0.00 | 0.00 | 0.00 | 48 | 1009.0 |
| 20260504234234 | 69 | 224 | 7.0 | 14.0 | 0.00 | 0.00 | 0.00 | 47 | 1009.0 |
| 20260504233730 | 69 | 209 | 7.0 | 10.0 | 0.00 | 0.00 | 0.00 | 47 | 1009.1 |
| 20260504233226 | 69 | 224 | 5.0 | 11.0 | 0.00 | 0.00 | 0.00 | 47 | 1009.0 |
| 20260504232723 | 70 | 212 | 7.0 | 10.0 | 0.00 | 0.00 | 0.00 | 46 | 1008.8 |
| 20260504232220 | 70 | 194 | 5.0 | 10.0 | 0.00 | 0.00 | 0.00 | 47 | 1008.8 |
| 20260504231716 | 70 | 204 | 9.0 | 15.0 | 0.00 | 0.00 | 0.00 | 46 | 1008.9 |
| 20260504231213 | 70 | 233 | 9.0 | 15.0 | 0.00 | 0.00 | 0.00 | 46 | 1009.2 |
| 20260504230709 | 70 | 206 | 9.0 | 13.0 | 0.00 | 0.00 | 0.00 | 45 | 1008.8 |
| 20260504230208 | 70 | 176 | 4.0 | 11.0 | 0.00 | 0.00 | 0.00 | 46 | 1008.9 |
| 20260504225706 | 70 | 223 | 7.0 | 14.0 | 0.00 | 0.00 | 0.00 | 46 | 1008.6 |
| 20260504225202 | 70 | 196 | 6.0 | 10.0 | 0.00 | 0.00 | 0.00 | 45 | 1008.7 |
| 20260504224659 | 70 | 187 | 9.0 | 14.0 | 0.00 | 0.00 | 0.00 | 46 | 1008.9 |
| 20260504224156 | 71 | 221 | 12.0 | 21.0 | 0.00 | 0.00 | 0.00 | 45 | 1008.6 |
| 20260504223653 | 71 | 207 | 9.0 | 17.0 | 0.00 | 0.00 | 0.00 | 45 | 1008.9 |
| 20260504223148 | 71 | 250 | 9.0 | 18.0 | 0.00 | 0.00 | 0.00 | 45 | 1008.8 |
| 20260504222646 | 71 | 201 | 8.0 | 17.0 | 0.00 | 0.00 | 0.00 | 45 | 1008.7 |
| 20260504222142 | 71 | 168 | 3.0 | 8.0 | 0.00 | 0.00 | 0.00 | 46 | 1008.7 |
| 20260504221640 | 71 | 204 | 4.0 | 9.0 | 0.00 | 0.00 | 0.00 | 44 | 1008.7 |
| 20260504221137 | 71 | 192 | 3.0 | 10.0 | 0.00 | 0.00 | 0.00 | 46 | 1008.6 |
| 20260504220633 | 71 | 225 | 9.0 | 13.0 | 0.00 | 0.00 | 0.00 | 44 | 1008.9 |
| 20260504220131 | 71 | 240 | 11.0 | 13.0 | 0.00 | 0.00 | 0.00 | 43 | 1009.0 |
| 20260504215627 | 71 | 234 | 8.0 | 10.0 | 0.00 | 0.00 | 0.00 | 44 | 1008.8 |
| 20260504215125 | 71 | 147 | 9.0 | 10.0 | 0.00 | 0.00 | 0.00 | 44 | 1008.9 |
| 20260504214621 | 71 | 199 | 15.0 | 21.0 | 0.00 | 0.00 | 0.00 | 43 | 1008.7 |
| 20260504214117 | 71 | 184 | 6.0 | 9.0 | 0.00 | 0.00 | 0.00 | 43 | 1009.0 |
| 20260504213613 | 72 | 139 | 7.0 | 10.0 | 0.00 | 0.00 | 0.00 | 43 | 1009.0 |
| 20260504213110 | 71 | 226 | 10.0 | 18.0 | 0.00 | 0.00 | 0.00 | 44 | 1008.6 |
| 20260504212606 | 72 | 213 | 7.0 | 10.0 | 0.00 | 0.00 | 0.00 | 44 | 1008.9 |
| 20260504212104 | 72 | 243 | 7.0 | 13.0 | 0.00 | 0.00 | 0.00 | 44 | 1008.7 |
| 20260504211601 | 72 | 222 | 7.0 | 9.0 | 0.00 | 0.00 | 0.00 | 40 | 1008.9 |
| 20260504211057 | 72 | 193 | 4.0 | 10.0 | 0.00 | 0.00 | 0.00 | 42 | 1009.0 |